owner,sensor,date,latitude,longitude,vertical_datum,sea_water_temperature,qcFlag 
NERRS,ioos:station:NOAA.NERRS:gndpcwq:1,2013-12-01T01:00:00Z,30.3486,-88.4185,0.0,11.9,2 
NERRS,ioos:station:NOAA.NERRS:gndpcwq:1,2013-12-01T09:00:00Z,30.3486,-88.4185,0.0,11.8,2 
NERRS,ioos:station:NOAA.NERRS:gndpcwq:1,2013-12-01T14:00:00Z,30.3486,-88.4185,0.0,11.6,2 
NERRS,ioos:station:NOAA.NERRS:gndpcwq:1,2013-12-01T22:00:00Z,30.3486,-88.4185,0.0,12.4,2 
NERRS,ioos:station:NOAA.NERRS:gndpcwq:1,2013-12-01T23:00:00Z,30.3486,-88.4185,0.0,12.5,2 
NERRS,ioos:station:NOAA.NERRS:gndpcwq:1,2013-12-02T02:00:00Z,30.3486,-88.4185,0.0,12.9,2 
NERRS,ioos:station:NOAA.NERRS:gndpcwq:1,2013-12-02T09:00:00Z,30.3486,-88.4185,0.0,12.9,2 
NERRS,ioos:station:NOAA.NERRS:gndpcwq:1,2013-12-02T13:00:00Z,30.3486,-88.4185,0.0,12.8,2 
NERRS,ioos:station:NOAA.NERRS:gndpcwq:1,2013-12-02T14:00:00Z,30.3486,-88.4185,0.0,12.7,2 
NERRS,ioos:station:NOAA.NERRS:gndpcwq:1,2013-12-02T16:00:00Z,30.3486,-88.4185,0.0,12.9,2 
NERRS,ioos:station:NOAA.NERRS:gndpcwq:1,2013-12-02T22:00:00Z,30.3486,-88.4185,0.0,14.1,2 
NERRS,ioos:station:NOAA.NERRS:gndpcwq:1,2013-12-03T00:00:00Z,30.3486,-88.4185,0.0,14.2,2 
NERRS,ioos:station:NOAA.NERRS:gndpcwq:1,2013-12-03T07:00:00Z,30.3486,-88.4185,0.0,14.2,2 
NERRS,ioos:station:NOAA.NERRS:gndpcwq:1,2013-12-03T12:00:00Z,30.3486,-88.4185,0.0,14.6,2 
NERRS,ioos:station:NOAA.NERRS:gndpcwq:1,2013-12-03T14:00:00Z,30.3486,-88.4185,0.0,14.7,2 
NERRS,ioos:station:NOAA.NERRS:gndpcwq:1,2013-12-03T17:00:00Z,30.3486,-88.4185,0.0,15.2,2 
NERRS,ioos:station:NOAA.NERRS:gndpcwq:1,2013-12-03T22:00:00Z,30.3486,-88.4185,0.0,15.6,2 
NERRS,ioos:station:NOAA.NERRS:gndpcwq:1,2013-12-04T00:00:00Z,30.3486,-88.4185,0.0,15.6,2 
NERRS,ioos:station:NOAA.NERRS:gndpcwq:1,2013-12-04T01:00:00Z,30.3486,-88.4185,0.0,15.5,2 
NERRS,ioos:station:NOAA.NERRS:gndpcwq:1,2013-12-04T04:00:00Z,30.3486,-88.4185,0.0,15.1,2 
NERRS,ioos:station:NOAA.NERRS:gndpcwq:1,2013-12-04T10:00:00Z,30.3486,-88.4185,0.0,15.7,2 
NERRS,ioos:station:NOAA.NERRS:gndpcwq:1,2013-12-04T14:00:00Z,30.3486,-88.4185,0.0,15.2,2 
NERRS,ioos:station:NOAA.NERRS:gndpcwq:1,2013-12-04T15:00:00Z,30.3486,-88.4185,0.0,15.2,2 
NERRS,ioos:station:NOAA.NERRS:gndpcwq:1,2013-12-04T16:00:00Z,30.3486,-88.4185,0.0,15.3,2 
NERRS,ioos:station:NOAA.NERRS:gndpcwq:1,2013-12-04T17:00:00Z,30.3486,-88.4185,0.0,15.5,2 
NERRS,ioos:station:NOAA.NERRS:gndpcwq:1,2013-12-04T18:00:00Z,30.3486,-88.4185,0.0,15.7,2 
NERRS,ioos:station:NOAA.NERRS:gndpcwq:1,2013-12-04T19:00:00Z,30.3486,-88.4185,0.0,16.2,2 
NERRS,ioos:station:NOAA.NERRS:gndpcwq:1,2013-12-04T20:00:00Z,30.3486,-88.4185,0.0,16.3,2 
NERRS,ioos:station:NOAA.NERRS:gndpcwq:1,2013-12-04T21:00:00Z,30.3486,-88.4185,0.0,16.7,2 
NERRS,ioos:station:NOAA.NERRS:gndpcwq:1,2013-12-04T22:00:00Z,30.3486,-88.4185,0.0,16.6,2 
NERRS,ioos:station:NOAA.NERRS:gndpcwq:1,2013-12-04T23:00:00Z,30.3486,-88.4185,0.0,16.5,2 
NERRS,ioos:station:NOAA.NERRS:gndpcwq:1,2013-12-05T00:00:00Z,30.3486,-88.4185,0.0,16.5,2 
NERRS,ioos:station:NOAA.NERRS:gndpcwq:1,2013-12-05T01:00:00Z,30.3486,-88.4185,0.0,16.4,2 
NERRS,ioos:station:NOAA.NERRS:gndpcwq:1,2013-12-05T02:00:00Z,30.3486,-88.4185,0.0,16.5,2 
NERRS,ioos:station:NOAA.NERRS:gndpcwq:1,2013-12-05T03:00:00Z,30.3486,-88.4185,0.0,16.4,2 
NERRS,ioos:station:NOAA.NERRS:gndpcwq:1,2013-12-05T04:00:00Z,30.3486,-88.4185,0.0,16.3,2 
NERRS,ioos:station:NOAA.NERRS:gndpcwq:1,2013-12-05T05:00:00Z,30.3486,-88.4185,0.0,16.2,2 
NERRS,ioos:station:NOAA.NERRS:gndpcwq:1,2013-12-05T07:00:00Z,30.3486,-88.4185,0.0,16.3,2 
NERRS,ioos:station:NOAA.NERRS:gndpcwq:1,2013-12-05T08:00:00Z,30.3486,-88.4185,0.0,16.5,2 
NERRS,ioos:station:NOAA.NERRS:gndpcwq:1,2013-12-05T09:00:00Z,30.3486,-88.4185,0.0,16.7,2 
NERRS,ioos:station:NOAA.NERRS:gndpcwq:1,2013-12-05T10:00:00Z,30.3486,-88.4185,0.0,16.4,2 
NERRS,ioos:station:NOAA.NERRS:gndpcwq:1,2013-12-05T11:00:00Z,30.3486,-88.4185,0.0,16.4,2 
NERRS,ioos:station:NOAA.NERRS:gndpcwq:1,2013-12-05T12:00:00Z,30.3486,-88.4185,0.0,16.2,2 
NERRS,ioos:station:NOAA.NERRS:gndpcwq:1,2013-12-05T13:00:00Z,30.3486,-88.4185,0.0,16.2,2 
NERRS,ioos:station:NOAA.NERRS:gndpcwq:1,2013-12-05T14:00:00Z,30.3486,-88.4185,0.0,16.3,2 
NERRS,ioos:station:NOAA.NERRS:gndpcwq:1,2013-12-05T15:00:00Z,30.3486,-88.4185,0.0,16.4,2 
NERRS,ioos:station:NOAA.NERRS:gndpcwq:1,2013-12-05T16:00:00Z,30.3486,-88.4185,0.0,16.5,2 
NERRS,ioos:station:NOAA.NERRS:gndpcwq:1,2013-12-05T17:00:00Z,30.3486,-88.4185,0.0,16.9,2 
NERRS,ioos:station:NOAA.NERRS:gndpcwq:1,2013-12-05T18:00:00Z,30.3486,-88.4185,0.0,17.3,2 
NERRS,ioos:station:NOAA.NERRS:gndpcwq:1,2013-12-05T19:00:00Z,30.3486,-88.4185,0.0,17.5,2 
NERRS,ioos:station:NOAA.NERRS:gndpcwq:1,2013-12-05T20:00:00Z,30.3486,-88.4185,0.0,17.7,2 
NERRS,ioos:station:NOAA.NERRS:gndpcwq:1,2013-12-05T21:00:00Z,30.3486,-88.4185,0.0,17.8,2 
NERRS,ioos:station:NOAA.NERRS:gndpcwq:1,2013-12-05T22:00:00Z,30.3486,-88.4185,0.0,17.9,2 
NERRS,ioos:station:NOAA.NERRS:gndpcwq:1,2013-12-05T23:00:00Z,30.3486,-88.4185,0.0,17.9,2 
NERRS,ioos:station:NOAA.NERRS:gndpcwq:1,2013-12-06T00:00:00Z,30.3486,-88.4185,0.0,17.9,2 
NERRS,ioos:station:NOAA.NERRS:gndpcwq:1,2013-12-06T01:00:00Z,30.3486,-88.4185,0.0,17.9,2 
NERRS,ioos:station:NOAA.NERRS:gndpcwq:1,2013-12-06T02:00:00Z,30.3486,-88.4185,0.0,17.8,2 
NERRS,ioos:station:NOAA.NERRS:gndpcwq:1,2013-12-06T03:00:00Z,30.3486,-88.4185,0.0,17.7,2 
NERRS,ioos:station:NOAA.NERRS:gndpcwq:1,2013-12-06T04:00:00Z,30.3486,-88.4185,0.0,17.6,2 
NERRS,ioos:station:NOAA.NERRS:gndpcwq:1,2013-12-06T05:00:00Z,30.3486,-88.4185,0.0,17.6,2 
NERRS,ioos:station:NOAA.NERRS:gndpcwq:1,2013-12-06T06:00:00Z,30.3486,-88.4185,0.0,17.6,2 
NERRS,ioos:station:NOAA.NERRS:gndpcwq:1,2013-12-06T07:00:00Z,30.3486,-88.4185,0.0,17.7,2 
NERRS,ioos:station:NOAA.NERRS:gndpcwq:1,2013-12-06T08:00:00Z,30.3486,-88.4185,0.0,17.8,2 
NERRS,ioos:station:NOAA.NERRS:gndpcwq:1,2013-12-06T09:00:00Z,30.3486,-88.4185,0.0,17.9,2 
NERRS,ioos:station:NOAA.NERRS:gndpcwq:1,2013-12-06T10:00:00Z,30.3486,-88.4185,0.0,18.0,2 
NERRS,ioos:station:NOAA.NERRS:gndpcwq:1,2013-12-06T11:00:00Z,30.3486,-88.4185,0.0,18.2,2 
NERRS,ioos:station:NOAA.NERRS:gndpcwq:1,2013-12-06T12:00:00Z,30.3486,-88.4185,0.0,18.3,2 
NERRS,ioos:station:NOAA.NERRS:gndpcwq:1,2013-12-06T13:00:00Z,30.3486,-88.4185,0.0,18.5,2 
NERRS,ioos:station:NOAA.NERRS:gndpcwq:1,2013-12-06T14:00:00Z,30.3486,-88.4185,0.0,18.6,2 
NERRS,ioos:station:NOAA.NERRS:gndpcwq:1,2013-12-06T15:00:00Z,30.3486,-88.4185,0.0,18.2,2 
NERRS,ioos:station:NOAA.NERRS:gndpcwq:1,2013-12-06T16:00:00Z,30.3486,-88.4185,0.0,18.3,2 
NERRS,ioos:station:NOAA.NERRS:gndpcwq:1,2013-12-06T17:00:00Z,30.3486,-88.4185,0.0,18.5,2 
NERRS,ioos:station:NOAA.NERRS:gndpcwq:1,2013-12-06T18:00:00Z,30.3486,-88.4185,0.0,18.9,2 
NERRS,ioos:station:NOAA.NERRS:gndpcwq:1,2013-12-06T19:00:00Z,30.3486,-88.4185,0.0,19.3,2 
NERRS,ioos:station:NOAA.NERRS:gndpcwq:1,2013-12-06T20:00:00Z,30.3486,-88.4185,0.0,19.3,2 
NERRS,ioos:station:NOAA.NERRS:gndpcwq:1,2013-12-06T21:00:00Z,30.3486,-88.4185,0.0,19.4,2 
NERRS,ioos:station:NOAA.NERRS:gndpcwq:1,2013-12-06T22:00:00Z,30.3486,-88.4185,0.0,19.4,2 
NERRS,ioos:station:NOAA.NERRS:gndpcwq:1,2013-12-06T23:00:00Z,30.3486,-88.4185,0.0,19.4,2 
NERRS,ioos:station:NOAA.NERRS:gndpcwq:1,2013-12-07T00:00:00Z,30.3486,-88.4185,0.0,19.4,2 
NERRS,ioos:station:NOAA.NERRS:gndpcwq:1,2013-12-07T01:00:00Z,30.3486,-88.4185,0.0,19.4,2 
NERRS,ioos:station:NOAA.NERRS:gndpcwq:1,2013-12-07T02:00:00Z,30.3486,-88.4185,0.0,19.3,2 
NERRS,ioos:station:NOAA.NERRS:gndpcwq:1,2013-12-07T03:00:00Z,30.3486,-88.4185,0.0,19.2,2 
NERRS,ioos:station:NOAA.NERRS:gndpcwq:1,2013-12-07T04:00:00Z,30.3486,-88.4185,0.0,19.1,2 
NERRS,ioos:station:NOAA.NERRS:gndpcwq:1,2013-12-07T05:00:00Z,30.3486,-88.4185,0.0,19.0,2 
NERRS,ioos:station:NOAA.NERRS:gndpcwq:1,2013-12-07T06:00:00Z,30.3486,-88.4185,0.0,18.9,2 
NERRS,ioos:station:NOAA.NERRS:gndpcwq:1,2013-12-07T07:00:00Z,30.3486,-88.4185,0.0,19.0,2 
NERRS,ioos:station:NOAA.NERRS:gndpcwq:1,2013-12-07T08:00:00Z,30.3486,-88.4185,0.0,18.9,2 
NERRS,ioos:station:NOAA.NERRS:gndpcwq:1,2013-12-07T09:00:00Z,30.3486,-88.4185,0.0,18.7,2 
NERRS,ioos:station:NOAA.NERRS:gndpcwq:1,2013-12-07T10:00:00Z,30.3486,-88.4185,0.0,18.5,2 
NERRS,ioos:station:NOAA.NERRS:gndpcwq:1,2013-12-07T11:00:00Z,30.3486,-88.4185,0.0,18.2,2 
NERRS,ioos:station:NOAA.NERRS:gndpcwq:1,2013-12-07T12:00:00Z,30.3486,-88.4185,0.0,17.6,2 
NERRS,ioos:station:NOAA.NERRS:gndpcwq:1,2013-12-07T13:00:00Z,30.3486,-88.4185,0.0,17.3,2 
NERRS,ioos:station:NOAA.NERRS:gndpcwq:1,2013-12-07T14:00:00Z,30.3486,-88.4185,0.0,17.7,2 
NERRS,ioos:station:NOAA.NERRS:gndpcwq:1,2013-12-07T15:00:00Z,30.3486,-88.4185,0.0,16.8,2 
NERRS,ioos:station:NOAA.NERRS:gndpcwq:1,2013-12-07T16:00:00Z,30.3486,-88.4185,0.0,16.1,2 
NERRS,ioos:station:NOAA.NERRS:gndpcwq:1,2013-12-07T17:00:00Z,30.3486,-88.4185,0.0,16.7,2 
NERRS,ioos:station:NOAA.NERRS:gndpcwq:1,2013-12-07T18:00:00Z,30.3486,-88.4185,0.0,16.5,2 
NERRS,ioos:station:NOAA.NERRS:gndpcwq:1,2013-12-07T19:00:00Z,30.3486,-88.4185,0.0,16.5,2 
NERRS,ioos:station:NOAA.NERRS:gndpcwq:1,2013-12-07T20:00:00Z,30.3486,-88.4185,0.0,16.4,2 
NERRS,ioos:station:NOAA.NERRS:gndpcwq:1,2013-12-07T21:00:00Z,30.3486,-88.4185,0.0,16.3,2 
NERRS,ioos:station:NOAA.NERRS:gndpcwq:1,2013-12-07T22:00:00Z,30.3486,-88.4185,0.0,15.9,2 
NERRS,ioos:station:NOAA.NERRS:gndpcwq:1,2013-12-07T23:00:00Z,30.3486,-88.4185,0.0,15.7,2 
NERRS,ioos:station:NOAA.NERRS:gndpcwq:1,2013-12-08T00:00:00Z,30.3486,-88.4185,0.0,15.4,2 
NERRS,ioos:station:NOAA.NERRS:gndpcwq:1,2013-12-08T01:00:00Z,30.3486,-88.4185,0.0,15.3,2 
NERRS,ioos:station:NOAA.NERRS:gndpcwq:1,2013-12-08T02:00:00Z,30.3486,-88.4185,0.0,15.1,2 
NERRS,ioos:station:NOAA.NERRS:gndpcwq:1,2013-12-08T03:00:00Z,30.3486,-88.4185,0.0,15.0,2 
NERRS,ioos:station:NOAA.NERRS:gndpcwq:1,2013-12-08T04:00:00Z,30.3486,-88.4185,0.0,15.0,2 
NERRS,ioos:station:NOAA.NERRS:gndpcwq:1,2013-12-08T05:00:00Z,30.3486,-88.4185,0.0,14.9,2 
NERRS,ioos:station:NOAA.NERRS:gndpcwq:1,2013-12-08T06:00:00Z,30.3486,-88.4185,0.0,14.8,2 
NERRS,ioos:station:NOAA.NERRS:gndpcwq:1,2013-12-08T07:00:00Z,30.3486,-88.4185,0.0,14.8,2 
NERRS,ioos:station:NOAA.NERRS:gndpcwq:1,2013-12-08T08:00:00Z,30.3486,-88.4185,0.0,14.4,2 
NERRS,ioos:station:NOAA.NERRS:gndpcwq:1,2013-12-08T09:00:00Z,30.3486,-88.4185,0.0,14.4,2 
NERRS,ioos:station:NOAA.NERRS:gndpcwq:1,2013-12-08T10:00:00Z,30.3486,-88.4185,0.0,14.4,2 
NERRS,ioos:station:NOAA.NERRS:gndpcwq:1,2013-12-08T11:00:00Z,30.3486,-88.4185,0.0,14.4,2 
NERRS,ioos:station:NOAA.NERRS:gndpcwq:1,2013-12-08T12:00:00Z,30.3486,-88.4185,0.0,14.4,2 
NERRS,ioos:station:NOAA.NERRS:gndpcwq:1,2013-12-08T13:00:00Z,30.3486,-88.4185,0.0,14.3,2 
NERRS,ioos:station:NOAA.NERRS:gndpcwq:1,2013-12-08T14:00:00Z,30.3486,-88.4185,0.0,14.3,2 
NERRS,ioos:station:NOAA.NERRS:gndpcwq:1,2013-12-08T15:00:00Z,30.3486,-88.4185,0.0,14.3,2 
NERRS,ioos:station:NOAA.NERRS:gndpcwq:1,2013-12-08T16:00:00Z,30.3486,-88.4185,0.0,14.3,2 
NERRS,ioos:station:NOAA.NERRS:gndpcwq:1,2013-12-08T17:00:00Z,30.3486,-88.4185,0.0,14.3,2 
NERRS,ioos:station:NOAA.NERRS:gndpcwq:1,2013-12-08T19:00:00Z,30.3486,-88.4185,0.0,14.5,2 
NERRS,ioos:station:NOAA.NERRS:gndpcwq:1,2013-12-08T20:00:00Z,30.3486,-88.4185,0.0,14.6,2 
NERRS,ioos:station:NOAA.NERRS:gndpcwq:1,2013-12-08T21:00:00Z,30.3486,-88.4185,0.0,14.9,2 
NERRS,ioos:station:NOAA.NERRS:gndpcwq:1,2013-12-08T23:00:00Z,30.3486,-88.4185,0.0,14.9,2 
NERRS,ioos:station:NOAA.NERRS:gndpcwq:1,2013-12-09T00:00:00Z,30.3486,-88.4185,0.0,15.0,2 
NERRS,ioos:station:NOAA.NERRS:gndpcwq:1,2013-12-09T01:00:00Z,30.3486,-88.4185,0.0,15.0,2 
NERRS,ioos:station:NOAA.NERRS:gndpcwq:1,2013-12-09T02:00:00Z,30.3486,-88.4185,0.0,15.0,2 
NERRS,ioos:station:NOAA.NERRS:gndpcwq:1,2013-12-09T04:00:00Z,30.3486,-88.4185,0.0,15.0,2 
NERRS,ioos:station:NOAA.NERRS:gndpcwq:1,2013-12-09T05:00:00Z,30.3486,-88.4185,0.0,15.0,2 
NERRS,ioos:station:NOAA.NERRS:gndpcwq:1,2013-12-09T06:00:00Z,30.3486,-88.4185,0.0,15.0,2 
NERRS,ioos:station:NOAA.NERRS:gndpcwq:1,2013-12-09T07:00:00Z,30.3486,-88.4185,0.0,14.9,2 
NERRS,ioos:station:NOAA.NERRS:gndpcwq:1,2013-12-09T08:00:00Z,30.3486,-88.4185,0.0,14.9,2 
NERRS,ioos:station:NOAA.NERRS:gndpcwq:1,2013-12-09T09:00:00Z,30.3486,-88.4185,0.0,15.0,2 
NERRS,ioos:station:NOAA.NERRS:gndpcwq:1,2013-12-09T10:00:00Z,30.3486,-88.4185,0.0,15.0,2 
NERRS,ioos:station:NOAA.NERRS:gndpcwq:1,2013-12-09T11:00:00Z,30.3486,-88.4185,0.0,15.1,2 
NERRS,ioos:station:NOAA.NERRS:gndpcwq:1,2013-12-09T12:00:00Z,30.3486,-88.4185,0.0,15.1,2 
NERRS,ioos:station:NOAA.NERRS:gndpcwq:1,2013-12-09T14:00:00Z,30.3486,-88.4185,0.0,15.0,2 
NERRS,ioos:station:NOAA.NERRS:gndpcwq:1,2013-12-09T15:00:00Z,30.3486,-88.4185,0.0,15.1,2 
NERRS,ioos:station:NOAA.NERRS:gndpcwq:1,2013-12-09T20:00:00Z,30.3486,-88.4185,0.0,16.0,2 
NERRS,ioos:station:NOAA.NERRS:gndpcwq:1,2013-12-10T01:00:00Z,30.3486,-88.4185,0.0,16.3,2 
NERRS,ioos:station:NOAA.NERRS:gndpcwq:1,2013-12-10T02:00:00Z,30.3486,-88.4185,0.0,16.3,2 
NERRS,ioos:station:NOAA.NERRS:gndpcwq:1,2013-12-10T07:00:00Z,30.3486,-88.4185,0.0,16.3,2 
NERRS,ioos:station:NOAA.NERRS:gndpcwq:1,2013-12-10T11:00:00Z,30.3486,-88.4185,0.0,16.0,2 
NERRS,ioos:station:NOAA.NERRS:gndpcwq:1,2013-12-10T12:00:00Z,30.3486,-88.4185,0.0,15.9,2 
NERRS,ioos:station:NOAA.NERRS:gndpcwq:1,2013-12-10T13:00:00Z,30.3486,-88.4185,0.0,15.7,2 
NERRS,ioos:station:NOAA.NERRS:gndpcwq:1,2013-12-10T17:00:00Z,30.3486,-88.4185,0.0,14.9,2 
NERRS,ioos:station:NOAA.NERRS:gndpcwq:1,2013-12-10T22:00:00Z,30.3486,-88.4185,0.0,14.8,2 
NERRS,ioos:station:NOAA.NERRS:gndpcwq:1,2013-12-11T02:00:00Z,30.3486,-88.4185,0.0,14.1,2 
NERRS,ioos:station:NOAA.NERRS:gndpcwq:1,2013-12-11T06:00:00Z,30.3486,-88.4185,0.0,13.5,2 
NERRS,ioos:station:NOAA.NERRS:gndpcwq:1,2013-12-11T07:00:00Z,30.3486,-88.4185,0.0,13.3,2 
NERRS,ioos:station:NOAA.NERRS:gndpcwq:1,2013-12-11T12:00:00Z,30.3486,-88.4185,0.0,12.8,2 
NERRS,ioos:station:NOAA.NERRS:gndpcwq:1,2013-12-11T16:00:00Z,30.3486,-88.4185,0.0,12.7,2 
NERRS,ioos:station:NOAA.NERRS:gndpcwq:1,2013-12-11T23:00:00Z,30.3486,-88.4185,0.0,13.9,2 
NERRS,ioos:station:NOAA.NERRS:gndpcwq:1,2013-12-12T01:00:00Z,30.3486,-88.4185,0.0,14.0,2 
NERRS,ioos:station:NOAA.NERRS:gndpcwq:1,2013-12-12T09:00:00Z,30.3486,-88.4185,0.0,13.3,2 
NERRS,ioos:station:NOAA.NERRS:gndpcwq:1,2013-12-12T15:00:00Z,30.3486,-88.4185,0.0,12.3,2 
NERRS,ioos:station:NOAA.NERRS:gndpcwq:1,2013-12-12T19:00:00Z,30.3486,-88.4185,0.0,12.8,2 
NERRS,ioos:station:NOAA.NERRS:gndpcwq:1,2013-12-13T00:00:00Z,30.3486,-88.4185,0.0,12.6,2 
NERRS,ioos:station:NOAA.NERRS:gndpcwq:1,2013-12-13T01:45:00Z,30.3486,-88.4185,0.0,12.4,2 
 
DISCLAIMER: The Gulf of Mexico Coastal and Ocean Observing (GCOOS) Data Portal aggregates data from the regional data providers for the convenience of all data users. Data published on this website should not be used for navigation or certain other uses as we cannot guarantee data accuracy or availability. The data and delivery services are provided 'as is' without warranty of any kind. Data Source: Gulf of Mexico Coastal Ocean Observing System Data Portal (http://data.gcoos.org/) 
